Regional Weather Roundup
Issued by NWS Boston, MA

Current Version | Previous Version | Text Only | Print | Product List | Glossary Off
Versions: 1 2 3 4 5 6 7 8 9 10 11 12 13 14 15 16 17 18 19 20 21 22 23 24 25 26 27 28 29 30 31 32 33 34 35 36 37 38 39 40 41 42 43 44 45 46 47 48 49 50
944 ASUS41 KBOX 240410 RWRBOX REGIONAL WEATHER ROUNDUP NATIONAL WEATHER SERVICE BOSTON/NORTON MA 1200 AM EDT SUN JUN 24 2018 NOTE: "FAIR" INDICATES FEW OR NO CLOUDS BELOW 12,000 FEET WITH NO SIGNIFICANT WEATHER AND/OR OBSTRUCTIONS TO VISIBILITY. MAZALL-240500- EASTERN MASSACHUSETTS CITY SKY/WX TMP DP RH WIND PRES REMARKS BOSTON CLOUDY 60 56 86 N7 29.83F BEVERLY CLOUDY 57 56 96 N6 29.83S LAWRENCE CLOUDY 58 51 78 N7 29.85F BEDFORD CLOUDY 57 56 96 NW5 29.83F BLUE HILL N/A 57 57 100 CALM 29.82F NORWOOD CLOUDY 61 59 93 CALM 29.83S FOG MARSHFIELD FOG 59 59 100 VRB5 29.82S VSB 1 PLYMOUTH CLOUDY 59 58 96 N7 29.82F FOG TAUNTON CLOUDY 59 58 96 VRB6 29.83S NEW BEDFORD CLOUDY 60 60 100 NW3 29.81F $$ MAZALL-240500- CAPE COD AND THE ISLANDS CITY SKY/WX TMP DP RH WIND PRES REMARKS FALMOUTH NOT AVBL HYANNIS FOG 61 61 100 NW5 29.80S VSB 1 CHATHAM CLOUDY 62 61 96 CALM 29.82R PROVINCETOWN CLOUDY 60 59 96 N6 29.82S FOG NANTUCKET FOG 61 61 100 CALM 29.81S VSB 1/2 MARTHAS VNYRD CLOUDY 62 62 100 CALM 29.82S FOG $$ MAZALL-240500- CENTRAL AND WESTERN MASSACHUSETTS CITY SKY/WX TMP DP RH WIND PRES REMARKS WORCESTER FOG 54 54 100 CALM 29.85R VSB 1/2 FITCHBURG CLOUDY 55 55 100 NW3 29.85F ORANGE CLOUDY 56 56 100 CALM 29.86F FOG SPRINGFIELD CLOUDY 57 56 96 N5 29.83F WESTFIELD CLOUDY 57 57 100 N5 29.84F FOG NORTH ADAMS CLOUDY 58 53 84 E6 29.83F PITTSFIELD CLOUDY 56 54 93 CALM 29.84F FOG $$ RIZALL-240500- RHODE ISLAND CITY SKY/WX TMP DP RH WIND PRES REMARKS PROVIDENCE CLOUDY 61 57 87 N6 29.84S NEWPORT CLOUDY 60 59 96 N5 29.83S BLOCK ISLAND CLOUDY 60 60 100 N6 29.83F SMITHFIELD CLOUDY 57 56 96 N5 29.84S FOG WESTERLY CLOUDY 62 61 96 N3 29.84S $$ CTZALL-240500- CONNECTICUT CITY SKY/WX TMP DP RH WIND PRES REMARKS BRADLEY INTL DRIZZLE 58 58 100 NW3 29.85S FOG HARTFORD CLOUDY 60 59 96 N5 29.84F FOG BRIDGEPORT CLOUDY 64 60 87 N5 29.84S DANBURY CLOUDY 61 59 93 E3 29.85F GROTON CLOUDY 61 59 93 N7 29.83S NEW HAVEN CLOUDY 63 60 90 N6 29.84S CHESTER FOG 61 61 100 NW5 29.84S VSB 1/2 MERIDEN CLOUDY 60 57 89 NW3 29.85R WILLIMANTIC CLOUDY 60 57 89 NE6 29.84S OXFORD CLOUDY 59 58 96 N3 29.86S $$ MEZ002-015-021-024-NHZ003-005-008-011-012-014-VTZ005-008-240500- NORTHERN NEW ENGLAND CITY SKY/WX TMP DP RH WIND PRES REMARKS PORTLAND ME CLOUDY 55 53 93 NW3 29.84F BANGOR ME LGT RAIN 53 53 100 CALM 29.83F CONCORD NH CLOUDY 54 51 90 N3 29.85F MANCHESTER NH CLOUDY 58 52 80 NW3 29.83F NASHUA NH CLOUDY 56 55 97 NW6 29.85F PORTSMOUTH NH LGT RAIN 56 51 86 N8 29.81 JAFFREY NH CLOUDY 54 54 100 CALM 29.85F FOG KEENE NH CLOUDY 55 53 93 CALM 29.85F FOG BURLINGTON VT CLOUDY 60 54 80 S10 29.79F MT. WASHINGTON LGT RAIN 48 48 100 W39 N/A VSB 1/16 $$ NYZ052-076-240500- EASTERN NEW YORK CITY SKY/WX TMP DP RH WIND PRES REMARKS ALBANY DRIZZLE 61 56 83 S7 29.82F NEW YORK CITY CLOUDY 65 61 87 NE6 29.83S $$ ANZALL-240500- MARINE OBSERVATIONS STATION/POSITION TIME TEMP WIND PRES VSBY WAVE AIR SEA DIR/SP/G HT/PER (UTC) (F) (DEG/KT/KT) (MB) (MI) (FT/S) BOSTON BUOY 0350 58 62 10/ 10/ 12 1009.5F 2/ 5 BUZZARDS BAY 0300 60 360/ 10/ 11 1010.1F NANTUCKET SOUND 0350 62 66 340/ 6/ 6 1009.5R 1 MASS BAY-STELLWA 0304 56 59 1008.6F 3/ 5 ISLE OF SHOALS 0300 55 350/ 10/ 11 1010.1F S OF BLOCK IS 0343 62 N/A 3/ 8 $$ ......................KEY......................... SKY/WX - SKY CONDITION/PRESENT WEATHER TMP - TEMPERATURE IN FAHRENHEIT DWPT - DEWPOINT IN FAHRENHEIT RH - RELATIVE HUMIDITY IN PERCENT WIND - DIRECTION AND SPEED IN MPH PRES - MEAN SEA LEVEL PRESSURE IN INCHES OF HG WCI - WIND CHILL INDEX VSB - VISIBILITY IN MILES HX - HEAT INDEX TC - TEMPERATURE IN CELSIUS VRB - VARIABLE WIND DIRECTION N/A - NOT AVAILABLE

USA.gov is the U.S. government's official web portal to all federal, state and local government web resources and services.